Lancaster, PA

3:09 PM EDT on May 22, 2017 (GMT -0400)
Lancaster

Weather History for KLNS - October, 2011

Change the Weather History Date:

Tuesday, October 18, 2011

  Actual Average Record
Temperature  
Mean Temperature 56 °F -  
Max Temperature 70 °F 62 °F 86 °F (2016)
Min Temperature 43 °F 41 °F 26 °F (1982)
Degree Days  
Heating Degree Days 8    
Growing Degree Days 6 (Base 50)    
Moisture  
Dew Point 42 °F    
Average Humidity 63    
Maximum Humidity 90    
Minimum Humidity 26    
Precipitation  
Precipitation 0.00 in - - ()
Sea Level Pressure  
Sea Level Pressure 29.84 in    
Wind  
Wind Speed 2 mph (SE)    
Max Wind Speed 7 mph    
Max Gust Speed -    
Visibility 10 miles    
Events Rain    
Averages and records for this station are not official NWS values.
T = Trace of Precipitation, MM = Missing Value Source: NWS Daily Summary

Daily Weather History Graph

Daily Weather History Graph

Search for Another Location

Airport or City:

Trip Planner

Search our weather history database for the weather conditions in past years. The results will help you decide how hot, cold, wet, or windy it might be!

Date:

Astronomy

Oct. 18, 2011 Rise Set
Actual Time 7:18 AM EDT 6:21 PM EDT
Civil Twilight 6:51 AM EDT 6:48 PM EDT
Nautical Twilight 6:19 AM EDT 7:20 PM EDT
Astronomical Twilight 5:48 AM EDT 7:51 PM EDT
Moon 11:00 PM EDT (10/18) 1:08 PM EDT (10/18)
Length of Visible Light 11h 57m
Length of Day
11h 02m
Waning Gibbous, 65% of the Moon is Illuminated
Oct 18
Waning Gibbous
Oct 19
Last Quarter
Oct 26
New
Nov 2
First Quarter
Nov 10
Full

Hourly Weather History & Observations

Time (EDT) Temp. Windchill Dew Point Humidity Pressure Visibility Wind Dir Wind Speed Gust Speed Precip Events Conditions
12:53 AM 48.9 °F - 39.0 °F 69% 29.82 in 10.0 mi Calm Calm - N/A   Clear
1:53 AM 48.9 °F - 39.0 °F 69% 29.82 in 10.0 mi WSW 3.5 mph - N/A   Clear
2:53 AM 44.1 °F - 39.9 °F 85% 29.81 in 10.0 mi Calm Calm - N/A   Clear
3:53 AM 44.1 °F - 39.0 °F 82% 29.83 in 10.0 mi Calm Calm - N/A   Clear
4:53 AM 43.0 °F 41.3 °F 39.9 °F 89% 29.83 in 10.0 mi ESE 3.5 mph - N/A   Clear
5:53 AM 45.0 °F 43.5 °F 42.1 °F 90% 29.85 in 10.0 mi ESE 3.5 mph - 0.00 in Rain Light Rain
7:53 AM 46.9 °F - 43.0 °F 86% 29.87 in 9.0 mi South 3.5 mph - N/A   Scattered Clouds
8:53 AM 50.0 °F - 46.0 °F 86% 29.88 in 9.0 mi Calm Calm - N/A   Clear
9:53 AM 55.9 °F - 44.1 °F 64% 29.89 in 10.0 mi Calm Calm - N/A   Clear
10:53 AM 61.0 °F - 44.1 °F 54% 29.88 in 10.0 mi Calm Calm - N/A   Partly Cloudy
11:53 AM 64.9 °F - 39.0 °F 39% 29.87 in 10.0 mi SE 4.6 mph - N/A   Clear
12:53 PM 68.0 °F - 34.0 °F 28% 29.86 in 10.0 mi Variable 3.5 mph - N/A   Clear
2:53 PM 70.0 °F - 33.1 °F 26% 29.82 in 10.0 mi South 6.9 mph - N/A   Clear
3:53 PM 70.0 °F - 36.0 °F 29% 29.81 in 10.0 mi South 5.8 mph - N/A   Clear
4:53 PM 68.0 °F - 42.1 °F 39% 29.81 in 10.0 mi SE 6.9 mph - N/A   Clear
5:53 PM 66.0 °F - 45.0 °F 47% 29.81 in 10.0 mi ESE 3.5 mph - N/A   Clear
6:53 PM 61.0 °F - 45.0 °F 56% 29.82 in 10.0 mi East 4.6 mph - N/A   Clear
7:53 PM 59.0 °F - 44.1 °F 58% 29.83 in 10.0 mi Calm Calm - N/A   Clear
9:53 PM 55.0 °F - 46.9 °F 74% 29.83 in 9.0 mi East 4.6 mph - N/A   Clear
10:53 PM 55.9 °F - 48.0 °F 75% 29.85 in 10.0 mi Calm Calm - N/A   Mostly Cloudy
11:53 PM 55.0 °F - 46.9 °F 74% 29.83 in 10.0 mi East 5.8 mph - N/A   Clear